Home   Weather   Liepāja   Past weeks

Flag for Latvia Past Weather in Liepāja, Latvia — Yesterday and Last 2 Weeks

Now
32 °F

Ice fog.


Feels Like: 32 °F
Forecast: 34 / 48 °F
Wind: 2 mph from East

Location: Liepaja International Airport

Current Time: Apr 28, 2017 at 1:55:54 am

Latest Report: Apr 28, 2017 at 1:20 am


Visibility: 4 mi

Pressure: 30.01 "Hg

Humidity: 100%

Dew Point: 32 °F

Location of LiepājaLocation

Past Weather in Liepāja — Graph

°F

Liepāja Temperature Yesterday

Maximum temperature yesterday: 46 °F (at 12:20 pm)
Minimum temperature yesterday: 30 °F (at 4:20 am)
Average temperature yesterday: 40 °F

High & Low Weather Summary for the Past Weeks

 TemperatureHumidityPressure
High46 °F (Apr 21, 12:20 pm)100% (Apr 13, 12:20 am)30.54 "Hg (Apr 13, 12:20 am)
Low23 °F (Apr 20, 5:20 am)33% (Apr 19, 1:50 pm)29.36 "Hg (Apr 13, 12:20 am)
Average38 °F77%29.86 "Hg
* Reported Apr 13 12:20 am — Apr 28 12:50 am, Liepāja, Weather by CustomWeather, © 2017

Note: Actual official high and low records may vary slightly from our data, if they occured in-between our weather recording intervals... More about our weather records

Advertising

Liepāja Weather History for the Previous 24 Hours

Scroll right to see more
 ConditionsComfort  
Time TempWeatherWind HumidityBarometerVisibility
12:50 am
Fri, Apr 28
34 °FChilly.No wind93%30.01 "Hg5 mi
12:20 am34 °FChilly.No wind100%30.01 "HgN/A
11:50 pm
Thu, Apr 27
34 °FChilly.2 mph100%30.01 "Hg6 mi
11:20 pm36 °FClear.No wind93%30.01 "HgN/A
10:50 pm34 °FChilly.1 mph93%29.98 "HgN/A
10:20 pm36 °FClear.2 mph93%29.98 "HgN/A
9:50 pm39 °FChilly.3 mph87%29.98 "HgN/A
9:20 pm41 °FQuite cool.3 mph81%29.98 "HgN/A
8:50 pm41 °FQuite cool.7 mph81%29.98 "HgN/A
8:20 pm43 °FQuite cool.7 mph76%29.95 "HgN/A
7:50 pm43 °FQuite cool.9 mph71%29.95 "HgN/A
7:20 pm45 °FQuite cool.9 mph71%29.95 "HgN/A
6:50 pm45 °FQuite cool.9 mph76%29.95 "HgN/A
6:20 pm45 °FPassing clouds.13 mph76%29.95 "HgN/A
5:50 pm45 °FQuite cool.14 mph71%29.95 "HgN/A
5:20 pm45 °FQuite cool.15 mph71%29.95 "HgN/A
4:50 pm46 °FPassing clouds.13 mph71%29.92 "HgN/A
4:20 pm46 °FCool.14 mph66%29.92 "HgN/A
3:50 pm46 °FPassing clouds.15 mph71%29.92 "HgN/A
3:20 pm46 °FPassing clouds.16 mph71%29.92 "HgN/A
2:50 pm46 °FPassing clouds.15 mph66%29.89 "HgN/A
2:20 pm46 °FScattered clouds.15 mph71%29.89 "HgN/A
1:50 pm45 °FScattered clouds.14 mph76%29.89 "HgN/A
1:20 pm45 °FPartly sunny.15 mph81%29.89 "HgN/A
12:50 pm46 °FPartly sunny.12 mph71%29.89 "HgN/A
12:20 pm46 °FBroken clouds.14 mph71%29.89 "HgN/A
11:50 am45 °FScattered clouds.15 mph76%29.89 "HgN/A
11:20 am45 °FPartly sunny.13 mph81%29.89 "HgN/A
10:50 am45 °FBroken clouds.13 mph76%29.86 "HgN/A
10:20 am43 °FCloudy.13 mph81%29.86 "HgN/A
9:50 am43 °FMore clouds than sun.13 mph87%29.86 "HgN/A
9:20 am41 °FOvercast.13 mph87%29.86 "HgN/A
8:50 am43 °FPartly sunny.10 mph87%29.86 "HgN/A
8:20 am41 °FBroken clouds.8 mph93%29.86 "HgN/A
7:50 am39 °FPartly sunny.6 mph93%29.86 "HgN/A
7:20 am37 °FBroken clouds.6 mph93%29.83 "HgN/A
6:50 am36 °FPassing clouds.5 mph93%29.83 "HgN/A
6:20 am34 °FPassing clouds.3 mph93%29.83 "HgN/A
5:50 am36 °FPassing clouds.7 mph93%29.83 "HgN/A
5:20 am34 °FPassing clouds.5 mph100%29.83 "HgN/A
4:50 am32 °FPassing clouds.No wind93%29.83 "HgN/A
4:20 am30 °FPassing clouds.No wind100%29.83 "HgN/A
3:50 am32 °FPassing clouds.2 mph100%29.86 "HgN/A
3:20 am32 °FPassing clouds.3 mph100%29.86 "HgN/A
2:50 am32 °FPassing clouds.2 mph100%29.86 "HgN/A
2:20 am34 °FPassing clouds.3 mph93%29.86 "HgN/A
1:50 am32 °FPassing clouds.No wind100%29.86 "HgN/A
1:20 am32 °FPassing clouds.No wind100%29.86 "HgN/A
Weather by CustomWeather, © 2017

See weather overviewHow to use our weather pages